カタログに戻る

STARLINK-31056

運用中通信VLEO
NORAD 58550·PAYLOAD·🇺🇸 United States

打ち上げ Dec 8, 2023 から Vandenberg Space Force Base

Loading…

次のパス (今後24時間)

TLE

最新Source: CelesTrak SupGP

元期: Sep 14, 2026, 21:33 UTC

1 58550C 23192V   26257.89840278  .00056426  00000+0  16673-2 0  2572
2 58550  53.1563 261.8549 0001165 100.3786 228.4208 15.34358580    10

AllMySatでSTARLINK-31056をリアルタイム追跡

Download on the App Store